San Antonio Del Tachira Airport

Jump to: basic info | weather | frequencies | runways | comments

Related pages: nearby airports | nearby navaids | notams | map

Basic information (top)

Codes: SVZ SVSA
Location: lon 7.840830, lat -72.439697, elev 1,312 ft / 400 m msl
Status: medium_airport

Weather (top)

Current conditions (rec'd 2015/04/21 06:00Z):

SVSA 210600Z /////KT 9999 OVC020 24/22 Q1014

Airport forecast (rec'd 2015/04/11 06:00Z):

TAF SVSA 110400Z 1106/1206 20010KT 9999 BKN020 TX33/1900Z TN23/09Z 
      TEMPO 1106/1111 15005KT 9999 SCT020 SCT070

Frequencies (top)

Verify before use: may be inaccurate or out of date.

GND: 121.9 MHz (GND)
TWR: 118.5 MHz (TWR)

Runways (top)

17/35: 6,135 x 131 ft (1,870 x 40 m) — paved — lighted

Latest comments (top)

No comments yet for San Antonio Del Tachira Airport

More... (top)

See also NOTAMs and nearby airports and navaids, or visit the San Antonio Del Tachira Airport page at the main OurAirports website..